Weather History for Winnemucca, NV

Change the Weather History Date:

Sunday, May 26, 2013

  Actual Average Record
Temperature  
Mean Temperature 57 °F 58 °F  
Max Temperature 73 °F 75 °F 96 °F (1974)
Min Temperature 40 °F 40 °F 28 °F (1997)
Degree Days  
Heating Degree Days 8 8  
Month to date heating degree days 242 284  
Since 1 July heating degree days 6281 6164  
Cooling Degree Days 0 1  
Month to date cooling degree days 1 4  
Year to date cooling degree days 1 4  
Growing Degree Days 8 (Base 50)    
Moisture  
Dew Point 28 °F    
Average Humidity 36    
Maximum Humidity 58    
Minimum Humidity 14    
Precipitation  
Precipitation 0.00 in 0.03 in 0.63 in (1941)
Month to date precipitation 0.32 0.96  
Year to date precipitation 1.66 4.21  
Snow  
Snow 0.00 in 0.00 in 0.00 in (1877)
Month to date snowfall 0.0 0.1  
Since 1 July snowfall 21.9 20.9  
Snow Depth 0.00 in    
Sea Level Pressure  
Sea Level Pressure 29.89 in    
Wind  
Wind Speed 9 mph (West)    
Max Wind Speed 25 mph    
Max Gust Speed 36 mph    
Visibility 10 miles    
Events      
T = Trace of Precipitation, MM = Missing Value Source: NWS Daily Summary

Daily Weather History Graph

Daily Weather History Graph

Search for Another Location

Airport:

Trip Planner

Search our weather history database for the weather conditions in past years. The results will help you decide how hot, cold, wet, or windy it might be!

Date:

Astronomy

May. 26, 2013 Rise Set
Actual Time 5:24 AM PDT 8:12 PM PDT
Civil Twilight 4:52 AM PDT 8:44 PM PDT
Nautical Twilight 4:11 AM PDT 9:25 PM PDT
Astronomical Twilight 3:25 AM PDT 10:12 PM PDT
Moon 10:04 PM PDT (5/26) 6:59 AM PDT (5/26)
Length of Visible Light 15h 52m
Length of Day
14h 47m
Waning Gibbous, 96% of the Moon is Illuminated
May 26
Waning Gibbous
May 31
Last Quarter
Jun 8
New
Jun 16
First Quarter
Jun 23
Full

Hourly Weather History & Observations

Time (PDT) Temp. Windchill Dew Point Humidity Pressure Visibility Wind Dir Wind Speed Gust Speed Precip Events Conditions
12:56 AM 59.0 °F - 28.0 °F 31% 29.83 in 10.0 mi West 15.0 mph 24.2 mph N/A   Clear
1:56 AM 55.9 °F - 30.0 °F 37% 29.84 in 10.0 mi West 11.5 mph - N/A   Clear
2:56 AM 55.0 °F - 30.0 °F 38% 29.86 in 10.0 mi Calm Calm - N/A   Clear
3:56 AM 52.0 °F - 30.0 °F 43% 29.86 in 10.0 mi NNW 4.6 mph - N/A   Clear
4:56 AM 46.0 °F - 28.0 °F 50% 29.88 in 10.0 mi Calm Calm - N/A   Clear
5:56 AM 46.9 °F - 28.9 °F 50% 29.89 in 10.0 mi SW 3.5 mph - N/A   Clear
6:56 AM 54.0 °F - 30.0 °F 40% 29.89 in 10.0 mi Variable 4.6 mph - N/A   Clear
7:56 AM 59.0 °F - 30.9 °F 35% 29.89 in 10.0 mi WSW 5.8 mph 16.1 mph N/A   Clear
8:56 AM 60.1 °F - 30.9 °F 33% 29.90 in 10.0 mi ESE 6.9 mph - N/A   Clear
9:56 AM 64.0 °F - 30.0 °F 28% 29.89 in 10.0 mi WSW 13.8 mph 18.4 mph N/A   Partly Cloudy
10:56 AM 66.0 °F - 28.0 °F 24% 29.89 in 10.0 mi WSW 10.4 mph 19.6 mph N/A   Scattered Clouds
11:56 AM 66.9 °F - 28.0 °F 23% 29.87 in 10.0 mi WSW 16.1 mph 23.0 mph N/A   Mostly Cloudy
12:56 PM 66.9 °F - 28.0 °F 23% 29.87 in 10.0 mi SW 9.2 mph 19.6 mph N/A   Mostly Cloudy
1:56 PM 69.1 °F - 26.1 °F 20% 29.85 in 10.0 mi West 11.5 mph 17.3 mph N/A   Mostly Cloudy
2:56 PM 72.0 °F - 21.9 °F 15% 29.84 in 10.0 mi WSW 10.4 mph - N/A   Scattered Clouds
3:56 PM 70.0 °F - 18.0 °F 14% 29.83 in 10.0 mi SW 16.1 mph 24.2 mph N/A   Mostly Cloudy
4:56 PM 69.1 °F - 21.0 °F 16% 29.84 in 10.0 mi West 13.8 mph 25.3 mph N/A   Mostly Cloudy
5:56 PM 71.1 °F - 21.0 °F 15% 29.84 in 10.0 mi West 18.4 mph 31.1 mph N/A   Mostly Cloudy
6:37 PM 64.4 °F - 32.0 °F 30% 29.95 in 10.0 mi NNW 17.3 mph 26.5 mph N/A   Scattered Clouds
6:56 PM 63.0 °F - 32.0 °F 31% 29.88 in 10.0 mi North 18.4 mph 25.3 mph N/A   Scattered Clouds
7:56 PM 57.9 °F - 33.1 °F 39% 29.91 in 10.0 mi North 11.5 mph - N/A   Partly Cloudy
8:56 PM 54.0 °F - 32.0 °F 43% 29.96 in 10.0 mi North 4.6 mph - N/A   Clear
9:56 PM 55.0 °F - 30.9 °F 40% 29.97 in 10.0 mi North 3.5 mph - 0.01 in   Clear
10:56 PM 44.1 °F 40.8 °F 30.0 °F 58% 30.00 in 10.0 mi WNW 5.8 mph - N/A   Clear
11:56 PM 44.1 °F 39.5 °F 30.9 °F 60% 30.01 in 10.0 mi West 8.1 mph - N/A   Clear